Regional Weather Roundup
Issued by NWS

Home | Current Version | Previous Version | Text Only | Print | Product List | Glossary Off
Versions: 1 2 3 4 5 6 7 8 9 10 11 12 13 14 15 16 17 18 19 20 21 22 23 24 25 26 27 28

000
ASUS45 KTFX 260110
RWRMT
MONTANA REGIONAL WEATHER ROUNDUP
NATIONAL WEATHER SERVICE GREAT FALLS MT
700 PM MDT WED MAY 25 2016

NOTE: "FAIR" INDICATES FEW OR NO CLOUDS BELOW 12000 FEET WITH NO
SIGNIFICANT WEATHER AND/OR OBSTRUCTIONS TO VISIBILITY.

MTZ001>007-043-260200-
WEST OF THE DIVIDE

CITY           SKY/WX    TMP DP  RH WIND       PRES   REMARKS
KALISPELL      PTSUNNY   60  51  72 SE9       29.95R
MISSOULA       CLOUDY    61  44  53 N14       29.97R
BUTTE          PTSUNNY   57  31  37 NW9       29.99R
MULLAN PASS    PTSUNNY   50  41  71 VRB6      30.07S
ANACONDA         N/A     61  32  33 W13G20    29.97S
DEER LODGE       N/A     61  36  39 W9G17     29.98R
EUREKA           N/A     68  45  42 SE9       29.91S
HAMILTON         N/A     61  43  51 W7        29.98S
LIBBY            N/A     68  45  42 CALM      29.94R
$$

MTZ008-052>055-260200-
SOUTHWEST MONTANA

CITY           SKY/WX    TMP DP  RH WIND       PRES   REMARKS
BOZEMAN        CLOUDY    63  31  30 W12       29.92R
DILLON         CLOUDY    62  27  26 MISG      29.96R
ENNIS          PTSUNNY   59  37  44 S6        30.01S
$$

MTZ009-010-012-014-046-048-049-054-260200-
EAST SLOPES AND CENTRAL MONTANA

CITY           SKY/WX    TMP DP  RH WIND       PRES   REMARKS
CUT BANK         N/A     64  36  35 N17       29.89R
GREAT FALLS    PTSUNNY   56  45  66 SW8       29.87S
MALMSTROM AFB  SUNNY     62  42  47 W16G23    29.86F
HELENA         CLOUDY    59  42  53 SE7       29.93R
CHOTEAU          N/A     61  43  51 W18G24    29.90R
$$

MTZ011-013-016-021-045-047-050-051-260200-
NORTH CENTRAL MONTANA

CITY           SKY/WX    TMP DP  RH WIND       PRES   REMARKS
HAVRE            N/A    N/A N/A N/A MISG      29.85
LEWISTOWN      LGT RAIN  51  44  77 CALM      29.91R
N BAR RANCH      N/A     50  41  71 N10       29.94R
CHINOOK          N/A     61  46  59 S5        29.86R
$$

MTZ017>020-022>027-061-062-260200-
NORTHEAST MONTANA

CITY           SKY/WX    TMP DP  RH WIND       PRES   REMARKS
GLASGOW        CLOUDY    64  42  44 NW7       29.81S
JORDAN           N/A     63  43  48 VRB3      29.82F
SIDNEY         SUNNY     63  46  55 NW6       29.82S
WOLF POINT     SUNNY     64  46  52 N3        29.82F
PLENTYWOOD       N/A     55  48  76 N10       29.82S
$$

MTZ028>42-056>058-260200-
SOUTHCENTRAL AND SOUTHEAST MONTANA

CITY           SKY/WX    TMP DP  RH WIND       PRES   REMARKS
BAKER          PTSUNNY   61  43  51 NW6       29.86S
BILLINGS       PTSUNNY   63  43  48 E10       29.86R
LIVINGSTON     CLOUDY    63  29  27 W17       29.89S
MILES CITY     LGT RAIN  56  48  74 W5        29.84S
FORSYTH          N/A     63  48  59 W5        29.83S
$$

REGIONAL REPORTS...DAKOTAS

CITY           SKY/WX    TMP DP  RH WIND       PRES   REMARKS
WILLISTON      PTSUNNY   56  49  77 NW9       29.81S
MINOT          LGT RAIN  61  58  90 SE7       29.74F
DICKINSON      MOSUNNY   57  42  57 NW14      29.81S
BEACH            N/A     59  39  47 NW10      29.87S
CROSBY         CLOUDY    52  52 100 NW15      29.81S
WATFORD CITY     N/A     57  48  72 NW9       29.81S
BISMARCK       CLOUDY    61  57  87 CALM      29.75S
GRAND FORKS    CLOUDY    62  59  90 CALM      29.65F
FARGO          PTCLDY    66  58  75 SW9       29.72S
BUFFALO SD       N/A     64  43  46 NW10      29.80R
RAPID CITY     CLOUDY    58  49  72 N10       29.88S
$$

REGIONAL REPORTS...WYOMING/IDAHO/WASHINGTON

CITY           SKY/WX    TMP DP  RH WIND       PRES   REMARKS
GILLETTE       CLOUDY    58  43  57 N6        29.93R
SHERIDAN       LGT RAIN  51  46  83 S12       29.91F
BUFFALO WY     CLOUDY    55  42  61 NW6       29.96R
CODY           CLOUDY    57  39  51 CALM      29.94R
YELLOWSTONE LA   N/A     39  34  82 CALM      30.09F
IDAHO FALLS    PTSUNNY   56  40  55 S7        30.02S
SALMON         MOSUNNY   66  36  32 N12       29.93S
BOISE          MOSUNNY   70  39  32 NW9G21    29.96F
SPOKANE        PTSUNNY   71  41  33 W16       29.97S
$$

REGIONAL REPORTS...ALBERTA

CITY           SKY/WX    TMP DP  RH WIND       PRES   REMARKS
EDMONTON       LGT RAIN  57  50  77 W12       29.86R
CALGARY        PTSUNNY   64  37  36 SE8       29.87R
LETHBRIDGE     MOSUNNY   64  39  39 E5        29.88R
MEDICINE HAT   MOSUNNY   64  43  45 N6        29.87R
WATERTON GATE    N/A     55  46  71 SW12        N/A
CARDSTON         N/A     63  46  55 W7          N/A
MILK RIVER       N/A     61  43  51 N9          N/A
$$

REGIONAL REPORTS...SASKATCHEWAN

CITY           SKY/WX    TMP DP  RH WIND       PRES   REMARKS
SWIFT CURRENT  MOSUNNY   57  48  72 E20       29.85S
REGINA         LGT RAIN  55  52  88 N10       29.86R
SASKATOON      PTSUNNY   66  46  48 N9        29.87S
CYPRESS HILLS    N/A     52  39  62 NE3         N/A
VAL MARIE        N/A     61  45  55 N14G20      N/A
ROCKGLEN         N/A     57  43  58 N6          N/A
ASSINIBOIA       N/A     70  43  37 SE5         N/A
$$




USA.gov is the U.S. government's official web portal to all federal, state and local government web resources and services.